Timeline UpdatesTrip UpdatesNews PostsPvt PostsTravel TipsAdmin PostsConv PostsFollowed PostsChat RequestsBlog PostsPNR Posts

Disclaimer
Search
 
 
Thu Jul 31, 2014 06:51:30 ISTHomeTrainsΣChainsAtlasPNRForumGalleryNewsFAQTripsMembersLoginFeedback
No Recent News for this Train
Other Trains in the News **new
Latest...
.
Sat Feb 02, 2013 (04:11PM)
⇐ Return Journey: Train# 51188

51187/Bhusaval Katni Passenger (UnReserved)

Feb 01 2014 (2:01PM)
Change Departure Station:
Change Arrival Station:
Post a Train Travel TipPost a Train Travel Tip **new
Post a Comment/Question/Picture/VideoPost a Comment/Question/Picture/Video
Pantry/Catering
???
RSA - Rake Sharing
Rake/Coach Composition
Loco
BSL-ET: BSL/ET WAP-4 ET-KTE: ET/KTE WDM-3A
News    PNR    Forum    Time-Table    Availability    Fare Chart    Map    Arr/Dep History    Trips    Gallery    ΣChains    X/O    Timeline    
Travel Time: 16h 30m    65 halts    Distance: 579 km    Avg Speed: 35 km/hr
Type: Passenger
Zone: CR/Central
Departs @ 10:55 (Avg 1h 7m late)
Platform# ???
SMTWTFS
Asirgarh Road/AGQ 
Arrives @ 03:25 +1 night (Avg 2h 25m late)
Platform# ???
SMTWTFS
Katni Junction/KTE 

65 halts. 71 intermediate Stations between Asirgarh Road and Katni Junction

Show ALL intermediate Stations  Show Old Time-Table

#CodeStation NameX/OArrivesAvgDepartsAvgHaltPFDay#KmSpeedElevZoneAddress
1BSLBhusaval Junction (8)  -09:30+21--1-63.437208mCRBhusaval 425201, Maharashtra
2DSKDuskheda (2)X  09:41+1:0509:42+1:051m--1-56.747213mCRDuskheda Station, Maharashtra
3SAVSavda (2)X  09:53+1:0409:54+1:051m--1-48.048220mCRSavda, Maharashtra
4NBNimbhora  10:05+1:0510:06+1:051m--1-39.355229mCRJalgaon, Maharashtra
5RVRaver (2)  10:17+1:0410:18+1:051m--1-29.154242mCRJalgaon, Maharashtra
6WGAWaghodaX  10:29+1:0410:30+1:061m--1-19.244259mCRChorwad, Maharashtra
7BAUBurhanpur (2)X  10:44+4410:45+461m21-8.960269mCRBurhanpur, Madhya Pradesh
8AGQ»Asirgarh Road (2)»  10:54+1:0610:55+1:071m--10.068259mCRState Highway 27, Madhya Pradesh
9CDIChandni (2)X  11:04+1:0711:05+1:081m--110.247276mCRNepanagar Rd, Madhya Pradesh
10NPNRNepanagar (2)  11:14+3711:15+381m--117.350289mCRState Highway 27, Madhya Pradesh
11MWAMandwa (2)X  11:22+1:1211:23+1:121m--123.160317mCRState Highway 27, Madhya Pradesh
12SXASagphata (2)  11:29+1:1311:30+1:131m--129.166350mCRKhandwa, Madhya Pradesh
13DGNDongargaon (2)X  11:37+1:1311:38+1:131m--136.891373mCRBorgaon, Madhya Pradesh
14KDKKohdad (2)X  11:43+1:1411:44+1:141m--144.453344mCRState Highway 15, Madhya Pradesh
15BMABagmar (2)X  11:49+1:1511:50+1:161m--148.890335mCRState Highway 27, Madhya Pradesh
16BRGJBargaon Gujar (2)X  11:54+1:1011:55+1:101m--154.86316mCRKhandwa, Madhya Pradesh
17KNWKhandwa Junction (5)X  12:50+2912:55+305m--159.944310mCRKhandwa, Madhya Pradesh
18MTAMathela (2)  13:05+4313:06+441m--167.356322mWCRKhandwa, Madhya Pradesh
19TLVTalvadiya (2)X  13:15+4313:16+441m--175.771308mWCRKhandwa, Madhya Pradesh
20SGBJSurgaon Banjari (2)  13:26+4313:27+441m--187.474298mWCRKhandwa, Madhya Pradesh
21CKKDCharkheda Khurd (2)  13:36+4613:37+531m--198.651274mWCRKhandwa, Madhya Pradesh
22CAERChhanera (2)  13:45+5513:46+1:031m--1105.461283mWCRChhanera, Madhya Pradesh
23BRUDBarud (2)X  13:56+1:0313:57+1:071m--1115.557273mWCRKhandwa, Madhya Pradesh
24DRHIDagarhkeri (2)X  14:07+1:0814:08+1:091m--1125.166274mWCRState Highway 15, Madhya Pradesh
25KKNKhirkiya (2)X  14:18+1:0714:19+1:081m21136.048281mWCRSH 15, Madhya Pradesh
26KROKurawan (2)X  14:27-14:29-2m--1142.440297mWCRSH 15, Madhya Pradesh
27BRIBhiringi (2)X  14:39+1:0314:40+1:041m--1149.144294mWCRSH 15, Madhya Pradesh
28MUOMasangaon (2)  14:47+1:0214:48+1:031m--1154.251303mWCRSH 15, Madhya Pradesh
29PALPalasner (2)  14:55+1:0114:56+1:021m--1160.244296mWCRHarda, Madhya Pradesh
30HDHarda (3)X  15:06+4415:07+471m--1167.653289mWCRHarda, Madhya Pradesh
31CRKCharkhera (2)  15:15+1:0415:16+1:091m--1174.653298mWCRBarkalan, Madhya Pradesh
32TBNTimarni (2)  15:24+5415:25+551m--1181.771308mWCRTimarni, Madhya Pradesh
33CGOChhidgaon (2)X  15:33-15:35-2m--1191.235309mWCRHarda, Madhya Pradesh
34PGLPagdhal (2)X  15:42+1:0715:43+1:141m--1195.355317mWCRPagdhal, Madhya Pradesh
35BIFBhaironpur (2)X  15:51+1:1115:52+1:121m--1202.655322mWCRSH 15, Madhya Pradesh
36BPFBanapura (2)  16:00+1:1016:01+1:171m--1209.955314mWCRBanapura, Madhya Pradesh
37DKIDharamkundi (2)  16:10+1:1916:11+1:201m--1218.155314mWCRSH 15, Madhya Pradesh
38KTZKhutwansa (2)X  16:19-16:20-1m--1225.538325mWCRSH 15, Madhya Pradesh
39DRADularia (2)O  16:29+1:1216:30+1:181m--1231.112318mWCRItarsi, Madhya Pradesh
40ETItarsi Junction (7)X  17:30+5017:50+5120m--1243.463329mWCRItarsi 461111, Madhya Pradesh
41GROGurra (2)  18:00+1:2718:02+1:282m--1253.960327mWCRItarsi, Madhya Pradesh
42SQLSontalai (2)  18:11+1:4818:13+2:062m--1262.946329mWCRItarsi, Madhya Pradesh
43BGTABagratawa (2)X  18:22+1:5918:24+2:112m--1269.871338mWCRBagra Tawa, Madhya Pradesh
44GMDGuramkhedi (2)  18:35+2:1518:37+2:192m--1282.960337mWCRGuramkhedi, Madhya Pradesh
45SGPSohagpur (2)X  18:47+2:2018:49+2:252m--1292.960340mWCRSohagpur, Madhya Pradesh
46SXFSobhapur (2)  18:58-19:00-2m--1301.965338mWCRState Highway 22, Madhya Pradesh
47PPIPipariya (3)X  19:08+1:2919:09+1:411m31310.676338mWCRPiparia, Madhya Pradesh
48BKHBankhedi (2)  19:24+2:4919:25+2:541m--1329.548351mWCRBankheri, Madhya Pradesh
49JHTJunehta (2)X  19:33-19:34-1m--1335.961353mWCRState Highway 22, Madhya Pradesh
50SCKRSalichauka Road (2)X  19:44+2:0719:45+2:261m--1346.170355mWCRGadarwara, Madhya Pradesh
51GARGadarwara (2)  19:57+1:5619:58+1:581m11360.065352mWCRNarsinghpur, Madhya Pradesh
52BNEBohani (2)O  20:10+2:5520:11+3:011m21372.945361mWCRNarsinghpur, Madhya Pradesh
53KFYKarapgaon (2)X  20:20-20:21-1m--1379.738363mWCRNational Highway 26, Madhya Pradesh
54KYKareli (2)X  20:34+2:2420:35+2:251m11387.943361mWCRKareli, Madhya Pradesh
55NUNarsinghpur (2)  20:58+1:1321:00+1:142m11404.350365mWCRNarsimhapur, Madhya Pradesh
56GPCGhatpindrai (2)X  21:07+2:5321:08+2:581m--1410.137366mWCRGhatpindra, Madhya Pradesh
57BELDBelkhera (2)  21:17+2:5621:18+3:001m--1415.633367mWCRState Highway 22, Madhya Pradesh
58KKBKarak Bel (2)XO  21:26+2:5921:28+3:132m11420.013375mWCRKarak Bel, Madhya Pradesh
59SRIDShridham (3)O  22:38+1:1522:40+1:182m21435.355373mWCRShridham, Madhya Pradesh
60BMRBikrampur (2)  22:53+2:2222:54+2:231m--1447.258353mWCRBikrampur Dist Narsingpur., Madhya Pradesh
61BHTNBhitoni (2)X  23:06+2:2423:07+2:251m--1458.866377mWCRJabalpur, Madhya Pradesh
62BRGTBheraghat (2)X  23:19+2:2323:20+2:291m--1471.918389mWCRBheraghat, Madhya Pradesh
63MMLMadan Mahal (3)  00:03+2:0600:05+2:082m32485.06428mWCRJabalpur, Madhya Pradesh
64JBPJabalpur Junction (4)X  00:40+1:0000:50+1:0110m22488.644416mWCRJabalpur, Madhya Pradesh
65ADTLAdhartal (2)X  01:01+1:3001:03+1:302m--2496.559393mWCRJabalpur, Madhya Pradesh
66DOEDeori (2)  01:12+1:4401:14+1:442m--2505.363392mWCRJabalpur, Madhya Pradesh
67GSPRGosalpur (2)XO  01:24+1:4101:26+1:482m--2515.974396mWCRJabalpur, Madhya Pradesh
68SHRSihora Road (2)XO  01:35+1:4301:37+1:442m--2527.075388mWCRJabalpur, Madhya Pradesh
69DDCEDundi (2)O  01:49+1:2301:51+1:232m--2541.971415mWCRDundi, Madhya Pradesh
70SBDSleemanabad Road (2)X  01:59+1:4202:01+1:452m--2551.441434mWCRSleemanabad, Madhya Pradesh
71SNRRSansarpur (2)O  02:11-02:13-2m--2558.318436mWCRNational Highway 7, Madhya Pradesh
72NWRNiwar (2)  02:39+1:2802:40+1:291m--2566.069412mWCRPipraundh, Madhya Pradesh
73MDRRMadhavnagar Road (2)X  02:47-02:49-2m--2574.19398mWCRMadhavnagar, Madhya Pradesh
74KTE•Katni Junction (6)•  03:25+2:25---2579.2-387mWCRKatni, Madhya Pradesh
Scroll to Top
Scroll to Bottom